Home   Weather   Jaisalmer   Past weeks

Flag for India Past Weather in Jaisalmer, Rajasthan, India — Yesterday and Last 2 Weeks

Now
104 °F

Haze.


Feels Like: 107 °F
Forecast: 78 / 101 °F
Wind: 12 mph from Southeast

Location: Sukkur

Current Time: Apr 27, 2017 at 6:56:54 pm

Latest Report: Apr 27, 2017 at 6:30 pm


Visibility: 3 mi

Pressure: 29.59 "Hg

Humidity: 26%

Dew Point: 63 °F

Location of JaisalmerLocation

Past Weather in Jaisalmer — Graph

°F

Jaisalmer Temperature Yesterday

Maximum temperature yesterday: 109 °F (at 5:30 pm)
Minimum temperature yesterday: 75 °F (at 7:30 am)
Average temperature yesterday: 94 °F

High & Low Weather Summary for the Past Weeks

 TemperatureHumidityPressure
High120 °F (Apr 20, 4:30 pm)79% (Apr 27, 8:30 am)29.74 "Hg (Apr 27, 8:30 am)
Low72 °F (Apr 13, 6:09 am)8% (Apr 23, 5:30 pm)29.39 "Hg (Apr 20, 5:30 pm)
Average95 °F38%29.58 "Hg
* Reported Apr 12 5:30 pm — Apr 27 5:30 pm, Jaisalmer, Weather by CustomWeather, © 2017

Note: Actual official high and low records may vary slightly from our data, if they occured in-between our weather recording intervals... More about our weather records

Advertising

Jaisalmer Weather History for the Previous 24 Hours

Scroll right to see more
 ConditionsComfort  
Time TempWeatherWind HumidityBarometerVisibility
5:30 pm
Thu, Apr 27
108 °FHaze.No wind28%29.59 "Hg3 mi
4:30 pm106 °FHaze.7 mph32%29.62 "Hg3 mi
3:30 pm106 °FHaze.5 mph32%29.62 "Hg3 mi
2:30 pm104 °FHaze.12 mph33%29.68 "Hg3 mi
1:30 pm100 °FHaze.9 mph37%29.68 "Hg3 mi
12:30 pm99 °FHaze.9 mph42%29.71 "Hg3 mi
11:30 am93 °FHaze.12 mph49%29.71 "Hg3 mi
10:30 am88 °FHaze.12 mph59%29.71 "HgN/A
9:30 am86 °FHaze.12 mph66%29.68 "Hg2 mi
8:30 am81 °FHaze.12 mph79%29.65 "Hg2 mi
7:30 am77 °FHaze.12 mph61%29.59 "Hg2 mi
6:30 am77 °FHaze.7 mph61%29.59 "Hg2 mi
4:30 am81 °FHaze.7 mph62%29.59 "Hg2 mi
12:30 am84 °FHaze.7 mph51%29.59 "Hg2 mi
11:30 pm
Wed, Apr 26
86 °FHaze.7 mph52%29.59 "Hg2 mi
10:30 pm86 °FHaze.7 mph52%29.59 "Hg2 mi
9:30 pm90 °FHaze.7 mph43%29.59 "Hg2 mi
8:30 pm95 °FHaze.7 mph36%29.56 "Hg2 mi
7:30 pm102 °FHaze.7 mph26%29.56 "Hg2 mi
6:30 pm106 °FHaze.12 mph20%29.56 "Hg2 mi
Weather by CustomWeather, © 2017

See weather overviewHow to use our weather pages